Vorticity
nan nan nan nan nan nan nan nan nan nan nan nan nan nan nan nan nan nan nan nan nan nan nan nan nan nan nan nan nan nan nan nan nan nan nan nan nan nan nan nan nan nan nan
nan 1 4 6 6 6 5 6 6 6 6 5 5 5 5 5 5 5 5 5 7 8 7 7 5 4 4 4 4 4 4 4 4 5 1 -3 1 5 6 7 9 8 nan
nan 6 3 4 7 6 6 6 6 6 5 5 6 5 4 5 5 4 5 6 8 8 7 7 5 4 4 3 4 4 4 3 2 2 4 1 2 3 5 6 7 5 nan
nan 8 4 3 7 6 6 6 6 6 6 6 5 5 5 6 4 5 4 7 8 8 7 6 4 4 3 2 4 4 4 2 3 9 8 5 2 3 6 4 4 8 nan
nan 5 8 6 6 6 6 6 6 6 6 5 5 5 6 5 4 5 5 8 8 7 7 5 5 3 2 4 5 5 3 2 3 8 4 8 6 4 3 7 9 6 nan
nan 7 4 6 6 6 6 7 6 6 6 5 6 5 5 5 5 3 6 6 7 8 7 5 4 3 4 5 5 4 3 6 10 5 7 7 6 7 7 8 7 6 nan
nan 10 6 7 8 8 7 6 6 7 6 6 5 5 5 3 4 5 6 6 5 8 8 5 3 4 6 7 6 3 2 4 13 7 7 5 6 6 7 7 6 6 nan
nan 9 9 10 6 4 7 7 8 7 7 6 6 4 4 4 4 7 6 6 6 7 8 6 5 6 6 6 4 4 4 7 10 5 5 5 6 6 6 6 7 7 nan
nan 7 8 5 3 1 5 7 9 9 7 8 5 5 4 6 6 6 7 7 7 6 7 7 6 6 6 5 5 4 4 8 8 6 7 6 5 5 6 6 6 6 nan
nan 10 8 8 3 5 3 5 7 8 8 8 6 5 3 3 5 4 7 6 8 6 7 8 7 6 5 5 6 6 3 4 2 7 8 6 6 4 5 5 6 5 nan
nan 10 10 7 7 9 7 6 4 4 5 6 6 6 4 2 6 1 2 9 8 8 7 7 5 4 -2 1 4 5 5 8 6 7 4 8 11 4 5 6 6 6 nan
nan 8 5 4 6 5 9 5 2 5 3 2 5 3 6 6 4 6 3 5 5 4 3 4 3 4 2 1 5 4 8 6 7 8 5 5 11 10 5 6 5 5 nan
nan 6 3 3 7 7 6 7 9 6 6 8 7 4 5 7 6 4 4 4 4 2 4 4 1 3 10 8 7 9 7 6 7 6 6 8 10 10 11 5 5 5 nan
nan 8 6 6 9 7 7 9 9 7 7 7 7 5 4 6 7 7 7 7 4 5 6 5 7 7 6 7 7 6 6 8 10 9 1 6 13 15 13 5 5 5 nan
nan 5 6 7 8 10 9 3 2 5 5 7 7 7 6 7 7 7 8 7 7 7 5 7 6 5 6 4 5 6 7 8 8 9 1 4 13 19 13 8 7 6 nan
nan 4 7 7 5 4 1 0 4 9 8 6 7 9 6 6 7 7 7 7 7 7 8 7 7 6 5 6 6 6 6 6 7 9 9 1 3 13 12 11 10 9 nan
nan 7 6 3 6 3 -1 4 7 9 7 7 7 7 7 8 7 6 6 6 7 7 8 8 6 6 6 6 6 7 5 5 6 7 7 8 3 -3 7 8 8 7 nan
nan 8 4 5 5 3 4 6 8 8 6 7 7 9 9 7 7 5 6 7 8 7 5 6 6 5 7 7 6 6 6 6 6 6 8 8 6 5 0 3 7 7 nan
nan 6 5 5 4 6 6 6 9 7 6 7 7 9 10 8 6 6 8 9 7 6 7 6 7 7 7 7 7 7 7 7 6 6 7 6 6 6 5 4 0 5 nan
nan 4 4 5 6 6 6 7 8 6 7 7 9 10 8 7 7 6 8 8 7 6 7 7 7 7 7 8 7 7 7 7 7 8 6 5 6 5 5 3 7 4 nan
nan 7 6 6 5 5 7 8 7 7 7 6 9 10 8 8 8 7 7 7 6 7 8 8 7 7 7 7 8 8 7 9 8 7 7 8 6 4 7 8 6 7 nan
nan 7 7 7 6 4 4 7 8 9 8 8 9 11 8 8 7 7 6 7 7 7 8 7 5 6 7 6 3 7 12 11 10 9 7 7 6 7 8 5 6 8 nan
nan 7 6 7 6 7 5 5 6 6 8 10 8 9 11 9 8 7 7 7 8 6 8 8 8 6 5 7 6 5 9 7 12 13 8 7 7 6 7 9 6 6 nan
nan 7 8 7 7 8 7 6 6 2 5 8 9 8 11 10 9 8 8 7 6 7 8 8 8 7 6 6 8 8 6 9 8 9 10 7 8 8 7 6 9 10 nan
nan 8 9 8 8 7 7 4 5 4 5 9 10 10 8 9 10 9 8 7 6 8 10 9 8 6 6 7 7 11 9 8 7 6 6 10 10 8 7 7 7 9 nan
nan nan nan nan nan nan nan nan nan nan nan nan nan nan nan nan nan nan nan nan nan nan nan nan nan nan nan nan nan nan nan nan nan nan nan nan nan nan nan nan nan nan nan
CAPE
590 477 909 1066 1135 1098 966 835 696 515 397 205 145 194 202 153 180 187 214 235 287 314 159 185 219 363 46 11 260 252 253 348 324 220 178 2 0 0 0 40 96 65 192
703 347 873 953 1093 1082 918 724 552 411 276 204 252 181 178 261 290 269 324 323 421 367 270 245 374 250 30 36 115 144 110 197 223 221 195 0 0 0 0 0 0 1 5
667 315 782 908 977 936 852 669 491 356 290 332 226 230 321 373 369 365 344 480 765 921 486 301 369 196 57 82 242 199 94 110 132 0 2 0 0 0 0 0 10 1 2
713 453 235 956 922 866 709 574 456 374 397 312 318 416 444 462 481 426 406 459 872 1031 766 449 376 184 131 295 330 224 65 38 0 0 0 4 0 5 4 2 1 5 5
1040 533 687 872 842 851 676 542 352 323 379 360 507 579 567 555 561 537 471 362 618 780 540 521 276 142 256 298 221 121 19 13 0 9 6 25 26 25 17 23 39 23 6
1174 800 678 749 852 830 688 486 353 358 333 418 538 590 632 657 665 612 541 400 365 419 221 222 34 100 211 183 153 49 28 0 0 2 11 22 26 24 23 30 34 32 40
1184 1062 975 697 817 741 649 485 422 417 353 464 499 494 619 730 743 729 530 451 296 345 245 151 88 193 221 133 12 7 5 0 0 0 11 18 28 17 16 18 48 52 39
1061 877 581 565 397 438 437 384 385 388 465 535 519 572 661 651 574 515 487 533 410 263 332 278 246 185 77 0 0 0 0 0 0 0 3 9 18 4 8 7 21 26 28
477 129 44 0 0 35 206 300 419 495 527 587 628 591 480 442 361 380 363 411 425 261 205 282 254 66 0 0 0 0 0 0 0 0 0 11 0 2 2 1 2 8 8
4 5 3 1 0 0 117 340 430 444 488 505 500 344 335 291 332 325 302 351 473 276 159 169 71 0 0 0 0 0 0 0 0 0 0 11 26 0 0 0 7 6 4
6 9 5 1 7 35 104 261 452 572 441 339 342 280 145 44 28 59 183 293 339 160 43 1 0 0 0 0 0 0 0 0 0 0 0 23 27 23 10 9 21 22 20
7 9 5 8 14 5 85 143 349 384 228 261 226 138 107 194 62 34 153 123 29 2 0 0 0 0 0 0 0 0 0 0 0 0 0 0 0 41 33 33 33 23 11
12 13 6 2 2 1 0 77 227 197 253 266 197 122 154 206 139 165 132 4 0 0 0 0 0 0 0 0 0 0 0 0 0 0 0 0 0 4 53 32 24 27 23
11 13 12 0 0 0 0 49 84 104 125 151 147 162 227 148 166 93 50 3 0 0 0 0 0 0 0 0 0 0 0 0 0 0 0 0 14 0 114 38 18 19 19
13 15 0 0 0 0 6 11 79 151 123 62 87 112 97 46 115 36 3 0 0 0 0 0 0 0 0 0 0 0 0 0 0 0 0 0 1 29 72 51 37 23 13
14 8 0 2 0 28 77 122 57 80 30 69 221 354 292 84 65 0 0 0 0 0 0 0 0 0 0 0 0 0 0 0 0 0 0 0 0 0 0 3 20 32 12
39 12 3 41 88 20 150 254 10 75 39 130 380 516 368 89 6 0 0 0 0 0 0 0 0 0 0 0 0 0 0 0 0 0 0 0 0 0 0 0 0 0 0
60 22 35 71 149 176 267 206 0 53 117 290 511 592 323 76 0 0 0 0 0 0 0 0 0 0 0 0 0 0 0 0 0 0 0 0 0 0 0 0 0 0 0
19 12 44 117 214 441 587 187 10 142 425 702 742 597 295 42 0 0 0 0 0 0 0 0 0 0 0 0 0 0 0 0 0 0 0 0 0 0 0 0 0 0 0
131 166 200 299 447 687 619 228 42 329 646 853 778 541 171 7 0 0 0 0 0 0 0 0 0 0 0 0 0 0 0 0 0 0 0 0 0 0 0 0 0 0 0
434 303 289 303 425 749 647 171 92 439 663 825 765 456 113 0 0 0 0 0 0 0 0 0 0 0 0 0 0 0 0 0 0 0 0 0 0 0 0 0 0 0 0
423 532 524 517 605 766 501 156 176 375 623 819 575 355 105 0 0 0 0 0 0 0 0 0 0 0 0 0 0 0 1 0 0 0 0 0 0 0 0 0 0 0 0
366 476 544 630 710 711 479 250 437 555 298 473 187 120 110 0 0 0 0 0 0 0 0 0 0 0 0 0 0 0 0 0 0 0 0 0 0 0 0 0 0 0 0
658 594 647 615 723 805 749 522 411 459 525 432 204 147 16 0 0 0 0 0 0 0 0 0 0 0 0 0 0 0 0 0 0 0 0 0 1 0 1 0 0 1 0
1001 885 1035 984 902 840 847 650 582 688 746 683 117 11 0 0 0 0 0 0 0 0 0 0 0 0 0 0 0 0 0 0 0 0 0 0 0 0 0 2 3 0 0
1303 1164 1096 1213 1099 920 944 862 844 861 888 388 18 0 0 0 0 0 0 0 0 0 0 0 0 0 0 0 0 0 0 0 0 0 0 0 0 0 0 0 2 4 7